Orbital elements:
1999 TA10
Epoch 1999 Sept. 19.0 TT = JDT 2451440.5                Williams
M  43.47711              (2000.0)            P               Q
n   0.53804855     Peri.   84.37998     +0.45211171     +0.86917114
a   1.4971147      Node   214.84330     -0.89193874     +0.43895048
e   0.2391438      Incl.   20.52737     -0.00634733     +0.22773669
P   1.83           H   17.7           G   0.15
From 89 observations 1999 Oct. 5-11.

Ephemeris:
1999 TA10                a,e,i = 1.50, 0.24, 21                  q = 1.1391
Date    TT    R. A. (2000) Decl.     Delta      r     Elong.  Phase     V
1999 10 09    01 38.99   +30 47.2    0.387    1.356   153.3    19.3    17.3
1999 10 14    01 34.41   +26 11.4    0.391    1.373   161.1    13.6    17.1
1999 10 19    01 30.09   +21 31.8    0.401    1.391   168.2     8.4    17.0
1999 10 24    01 26.34   +17 01.1    0.416    1.408   171.7     5.9    17.0
1999 10 29    01 23.36   +12 50.0    0.438    1.425   168.3     8.1    17.2
1999 11 03    01 21.26   +09 05.9    0.466    1.443   162.0    12.2    17.6
1999 11 08    01 20.13   +05 52.9    0.499    1.460   155.5    16.4    17.9
1999 11 13    01 19.97   +03 11.8    0.537    1.477   149.2    20.1    18.2
1999 11 18    01 20.78   +01 01.2    0.579    1.494   143.3    23.3    18.5
1999 11 23    01 22.48   -00 41.7    0.625    1.510   137.8    26.1    18.8
1999 11 28    01 24.99   -02 00.3    0.675    1.527   132.7    28.3    19.0
1999 12 03    01 28.24   -02 57.8    0.727    1.543   128.0    30.2    19.3
1999 12 08    01 32.17   -03 37.4    0.781    1.559   123.6    31.7    19.5
1999 12 13    01 36.72   -04 01.8    0.837    1.575   119.5    33.0    19.7
1999 12 18    01 41.81   -04 13.5    0.895    1.591   115.6    33.9    19.9

1999 12 28    01 53.42   -04 07.0    1.015    1.620   108.4    35.2    20.2
2000 01 07    02 06.60   -03 31.2    1.138    1.649   101.8    35.7    20.5
2000 01 17    02 21.11   -02 35.8    1.263    1.676    95.7    35.7    20.8
2000 01 27    02 36.70   -01 28.1    1.388    1.701    90.0    35.4    21.0
2000 02 06    02 53.22   -00 13.2    1.512    1.724    84.5    34.7    21.2
2000 02 16    03 10.58   +01 04.6    1.634    1.746    79.3    33.8    21.4
2000 02 26    03 28.66   +02 22.1    1.754    1.766    74.3    32.7    21.5
2000 03 07    03 47.39   +03 36.8    1.869    1.784    69.5    31.4    21.7
2000 03 17    04 06.72   +04 46.4    1.979    1.800    64.9    30.1    21.8
2000 03 27    04 26.57   +05 49.2    2.084    1.814    60.4    28.6    21.8

Gareth V. Williams           (C) Copyright 1999 MPC           M.P.E.C. 1999-T43

Read MPEC 1999-T42 Read MPEC 1999-T44


Our Web policy. Index to the CBAT/MPC/ICQ pages.

